Somerville, NJ

1:59 AM EST on November 12, 2019 (GMT -0500)
Somerset

Weather History for KSMQ - September, 2019

Change the Weather History Date:

Friday, September 6, 2019

  Actual Average Record
Temperature  
Mean Temperature 62 °F -  
Max Temperature 68 °F 78 °F 95 °F (1943)
Min Temperature 57 °F 56 °F 42 °F (1938)
Degree Days  
Heating Degree Days 2    
Growing Degree Days 12 (Base 50)    
Moisture  
Dew Point 56 °F    
Average Humidity 80    
Maximum Humidity 93    
Minimum Humidity 65    
Precipitation  
Precipitation 0.02 in - - ()
Sea Level Pressure  
Sea Level Pressure 29.86 in    
Wind  
Wind Speed 4 mph (NNE)    
Max Wind Speed 13 mph    
Max Gust Speed 21 mph    
Visibility 9 miles    
Events Rain    
Averages and records for this station are not official NWS values.
T = Trace of Precipitation, MM = Missing Value Source: NWS Daily Summary

Daily Weather History Graph

Daily Weather History Graph

Search for Another Location

Airport or City:

Astronomy

Sep. 06, 2019 Rise Set
Actual Time 6:30 AM EDT 7:23 PM EDT
Civil Twilight 6:02 AM EDT 7:50 PM EDT
Nautical Twilight 5:29 AM EDT 8:23 PM EDT
Astronomical Twilight 4:55 AM EDT 8:57 PM EDT
Moon 2:38 PM EDT (9/6) No Moon Set
Length of Visible Light 13h 48m
Length of Day
12h 52m
First Quarter, 55% of the Moon is Illuminated
Sep 6
First Quarter
Sep 14
Full
Sep 21
Last Quarter
Sep 28
New
Oct 5
First Quarter

Hourly Weather History & Observations

Time (EDT) Temp. Dew Point Humidity Pressure Visibility Wind Dir Wind Speed Gust Speed Precip Events Conditions
12:53 AM 61.0 °F 57.9 °F 90% 30.01 in 10.0 mi Calm Calm - N/A   Clear
1:53 AM 60.1 °F 57.9 °F 93% 29.99 in 10.0 mi NNW 3.5 mph - N/A   Clear
2:53 AM 59.0 °F 57.0 °F 93% 29.98 in 10.0 mi Calm Calm - N/A   Clear
3:53 AM 59.0 °F 55.9 °F 90% 29.96 in 10.0 mi NNW 4.6 mph - N/A   Clear
4:53 AM 59.0 °F 55.0 °F 87% 29.96 in 10.0 mi Calm Calm - N/A   Clear
5:53 AM 57.9 °F 55.0 °F 90% 29.96 in 10.0 mi Calm Calm - N/A   Clear
6:53 AM 59.0 °F 54.0 °F 83% 29.94 in 10.0 mi Calm Calm - N/A   Clear
7:53 AM 61.0 °F 55.0 °F 81% 29.93 in 10.0 mi North - - N/A   Clear
8:53 AM 63.0 °F 57.0 °F 81% 29.93 in 10.0 mi NNE 8.1 mph - N/A   Clear
9:45 AM 64.9 °F 57.0 °F 75% 29.93 in 10.0 mi NE 6.9 mph 16.1 mph N/A   Overcast
9:53 AM 64.9 °F 55.9 °F 73% 29.93 in 10.0 mi NE 10.4 mph - N/A   Overcast
10:19 AM 64.9 °F 57.0 °F 75% 29.91 in 10.0 mi Variable 5.8 mph - N/A   Mostly Cloudy
10:53 AM 64.9 °F 57.0 °F 75% 29.89 in 10.0 mi Variable 4.6 mph - N/A   Clear
11:53 AM 66.9 °F 55.9 °F 68% 29.88 in 10.0 mi NNE 8.1 mph 17.3 mph N/A   Mostly Cloudy
12:53 PM 66.9 °F 55.9 °F 68% 29.87 in 10.0 mi ENE 3.5 mph - N/A   Overcast
1:08 PM 66.9 °F 55.9 °F 68% 29.87 in 10.0 mi ENE 5.8 mph - N/A   Overcast
1:53 PM 68.0 °F 55.9 °F 65% 29.84 in 10.0 mi ENE 11.5 mph 17.3 mph N/A   Overcast
2:20 PM 66.9 °F 55.9 °F 68% 29.82 in 10.0 mi ENE 9.2 mph - N/A   Overcast
3:53 PM 66.0 °F 55.0 °F 68% 29.79 in 10.0 mi NE 6.9 mph - N/A   Overcast
4:25 PM 66.0 °F 54.0 °F 65% 29.79 in 10.0 mi NE 10.4 mph 20.7 mph N/A   Overcast
4:53 PM 66.0 °F 54.0 °F 65% 29.80 in 10.0 mi NE 6.9 mph - N/A   Overcast
5:33 PM 63.0 °F 55.0 °F 75% 29.81 in 10.0 mi North 12.7 mph 17.3 mph N/A   Overcast
5:53 PM 61.0 °F 55.9 °F 83% 29.81 in 4.0 mi North 5.8 mph - N/A   Haze
6:02 PM 61.0 °F 55.9 °F 83% 29.81 in 4.0 mi North 6.9 mph - N/A   Haze
6:53 PM 62.1 °F 55.0 °F 78% 29.79 in 10.0 mi North 5.8 mph - N/A   Overcast
7:53 PM 62.1 °F 55.0 °F 78% 29.79 in 10.0 mi NNW 3.5 mph - N/A   Overcast
8:53 PM 61.0 °F 57.0 °F 87% 29.79 in 6.0 mi Calm Calm - 0.01 in Rain Light Rain
9:07 PM 60.1 °F 57.0 °F 90% 29.79 in 9.0 mi NW 3.5 mph - 0.00 in   Overcast
9:30 PM 60.1 °F 57.0 °F 90% 29.79 in 10.0 mi NW 6.9 mph - 0.00 in   Overcast
9:53 PM 60.1 °F 57.0 °F 90% 29.80 in 8.0 mi NNW 9.2 mph - 0.01 in Rain Light Rain
10:53 PM 59.0 °F 57.0 °F 93% 29.77 in 10.0 mi NNW 5.8 mph - 0.00 in   Overcast
11:29 PM 60.1 °F 55.9 °F 86% 29.78 in 10.0 mi North 6.9 mph - N/A   Overcast
11:53 PM 60.1 °F 55.9 °F 86% 29.78 in 8.0 mi North 8.1 mph - 0.00 in Rain Light Rain